Location: Cherokee Woods
(36.2642°N, 86.5928°W)
Time: 21:34:28
(UTC+00:00)

Daily predictions for brighter satellites

Satellite Brightness Start Highest point End
(mag) Time Altitude Azimuth Time Altitude Azimuth Time Altitude Azimuth
Cosmos 2058 Rocket 3.6 23:25:22 10° SSE 23:29:20 35° E 23:33:19 10° NNE
Cosmos 2285 Rocket 4.1 23:23:06 10° N 23:29:30 62° ENE 23:35:47 10° SSE
H-2A R/B 2.8 23:26:44 10° SSE 23:30:35 89° E 23:34:31 10° NNW
SL-4 R/B 2.2 23:30:05 10° NW 23:33:47 42° NE 23:37:13 10° ESE
Okean-O 2.6 23:29:46 10° SSE 23:34:11 78° ENE 23:38:38 10° N
Abrixas rocket 2.0 23:31:51 10° SW 23:34:53 71° SE 23:37:56 10° ENE
USA 238 DEB 4.4 23:37:27 10° SSE 23:43:03 30° ESE 23:48:45 10° NE
USA 238 4.4 23:37:35 10° SSE 23:43:10 29° ESE 23:48:51 10° NE
Cosmos 1703 4.3 23:41:56 10° NNE 23:45:14 25° ENE 23:48:30 10° SE
Cosmos 1833 Rocket 4.2 23:43:25 10° NNE 23:46:44 16° NE 23:49:34 11° E
Cosmos 1503 Rocket 4.0 23:42:33 10° NNW 23:47:44 87° ENE 23:52:55 10° SSE
YAOGAN 6 3.1 23:45:04 10° SE 23:48:30 39° ENE 23:51:55 10° N
Cosmos 1953 3.6 23:45:32 10° SSW 23:49:26 47° W 23:53:23 10° N
USA 116 3.7 23:47:00 10° NNE 23:50:03 39° E 23:53:19 10° S
OAO 3 Rocket 3.3 23:45:33 10° W 23:50:28 77° S 23:54:50 13° E
COBE Rocket 4.1 23:45:35 10° N 23:50:45 83° WNW 23:55:48 10° SSW
COSMO-SKYMED 1 2.5 23:47:23 10° NNE 23:51:45 82° ESE 23:56:05 10° S
BREEZE-M DEB (TANK) 3.8 23:41:20 10° NW 23:53:04 84° NE 23:56:15 10° SE
